Theta_e
307 306 307 307 307 307 307 306 305 305 306 306 307 307 307 308 308 308 308 308 308 307 308 308 308 309 309 309 310 311 312 312 313 313 313 315 315 315 316 314 313 313 313 314 313 313 314 314 314 313 318 319 317 318 316 318 325 334 335 325 316 316 320 323 327 325 318 318 321 320 317 316 317 319 315 312 316 319 316 316 316 313 311 312 311 310 309 311
307 306 306 306 306 306 306 306 306 306 307 307 308 308 308 309 309 310 310 309 309 308 308 308 309 309 309 310 311 313 313 313 313 312 315 318 316 316 317 314 313 313 313 313 313 314 316 316 313 314 323 321 315 319 321 316 323 339 332 317 323 329 324 323 327 325 319 317 319 319 317 315 315 315 313 314 320 320 318 316 315 314 315 313 309 308 308 308
307 306 306 306 307 307 307 307 306 307 308 308 308 309 310 310 310 310 310 311 310 310 309 309 310 310 311 312 313 314 313 313 313 314 318 320 317 316 316 313 313 313 313 314 313 314 316 316 312 316 325 321 316 323 326 319 321 330 326 320 333 337 326 324 325 322 320 316 317 320 315 315 316 315 313 314 318 318 317 317 315 314 314 313 307 304 306 307
308 307 306 306 306 307 308 308 307 308 308 309 309 309 310 311 310 310 310 311 312 312 311 312 313 313 314 314 315 315 313 315 315 315 318 319 318 317 314 313 313 313 313 313 314 314 315 313 313 318 322 319 320 322 322 321 318 319 322 327 331 325 321 324 326 325 322 315 315 319 316 316 316 314 315 314 317 318 316 314 313 312 311 312 307 302 304 305
308 307 306 306 307 307 308 309 309 309 310 310 311 310 310 310 310 311 311 313 314 314 314 315 315 315 316 315 316 315 315 319 316 313 316 318 318 316 314 313 313 313 313 314 314 314 314 312 314 321 321 318 320 320 319 320 317 318 324 328 327 320 318 321 325 325 321 315 315 318 316 315 313 314 316 315 316 317 314 311 311 309 308 310 308 304 303 302
308 307 307 306 307 308 309 309 310 310 311 311 312 311 311 311 312 312 313 314 315 315 315 315 315 316 316 316 318 317 315 317 314 314 316 316 315 315 313 313 313 313 313 315 315 314 315 314 316 322 322 318 317 315 315 317 316 319 324 324 324 321 319 321 322 320 317 315 316 317 314 313 314 314 316 316 316 315 310 308 309 306 305 305 304 303 303 302
308 308 308 307 307 308 309 310 310 311 312 312 312 313 313 314 314 314 315 315 315 315 315 315 315 315 314 315 318 320 318 317 315 318 320 316 314 314 313 313 312 312 313 314 314 316 317 316 317 321 321 317 315 314 313 315 315 319 323 324 322 319 320 322 320 318 315 315 317 315 312 312 315 315 314 313 314 311 305 304 304 303 302 302 302 301 301 301
309 309 309 309 308 309 310 311 311 312 313 313 314 314 315 315 315 315 315 315 315 315 315 315 315 314 314 315 318 324 323 320 317 319 320 318 315 313 314 313 312 313 313 313 314 316 316 315 316 316 317 315 314 315 313 313 318 320 324 324 319 317 322 321 317 317 315 314 314 312 314 315 313 313 312 312 311 307 303 302 302 301 301 301 301 300 299 299
311 311 311 310 309 310 311 312 312 312 313 314 315 315 316 317 317 316 315 316 315 315 315 315 315 314 314 314 317 325 324 320 319 319 319 319 317 314 313 313 313 313 312 313 314 313 314 316 316 314 316 316 312 315 314 314 319 321 323 322 317 316 318 316 315 316 314 313 313 312 316 315 310 311 310 310 307 303 305 305 303 302 302 301 300 299 299 298
314 312 312 311 310 311 311 312 313 313 313 315 315 316 317 318 318 317 317 317 316 317 317 316 315 314 314 314 318 322 320 320 321 321 319 318 318 315 314 313 313 313 312 313 313 312 313 315 313 312 316 317 312 313 314 314 315 318 320 318 317 316 315 315 315 315 312 312 314 312 315 314 310 311 311 309 304 304 311 308 302 302 301 300 300 298 298 298
315 314 313 312 311 312 312 313 314 314 315 316 317 318 319 319 319 319 319 319 319 319 318 316 315 314 314 315 320 321 317 320 321 320 320 317 316 315 314 314 313 313 313 313 313 312 313 313 310 310 315 315 313 313 314 313 312 314 314 315 318 317 315 315 315 313 311 312 313 311 313 313 310 312 312 307 302 305 314 309 302 303 301 299 300 298 298 298
315 314 314 313 312 312 312 314 315 316 317 318 319 319 319 320 320 320 321 320 321 320 318 316 313 313 313 314 318 318 315 318 320 319 320 317 315 315 314 314 314 313 313 313 313 314 314 313 311 314 315 313 315 315 313 313 312 313 313 314 319 319 316 314 313 312 312 313 313 312 314 316 314 312 309 304 303 308 311 308 304 302 300 300 299 298 298 297
315 314 315 314 312 311 313 315 316 317 319 319 320 320 321 321 321 321 321 321 321 320 318 315 312 312 313 316 317 314 315 317 318 319 319 317 314 315 315 315 314 313 314 314 314 315 314 313 313 316 315 316 319 313 313 314 312 313 312 313 316 318 320 314 310 312 313 313 313 313 317 326 324 312 307 305 307 314 313 306 304 302 300 300 299 298 298 297
316 315 315 314 313 312 313 315 317 318 319 320 321 322 322 322 322 321 321 320 319 318 315 312 312 312 313 317 315 312 315 315 317 319 317 316 315 315 316 316 316 315 315 314 314 314 314 313 313 314 313 315 316 310 316 322 318 315 310 316 319 315 324 321 312 314 314 312 311 312 317 327 327 312 306 305 306 316 313 304 303 301 300 299 298 298 297 296
317 317 317 314 313 314 315 316 318 318 319 321 322 322 322 322 322 321 320 318 316 314 313 311 311 312 314 317 313 313 315 315 318 319 316 316 315 316 316 316 316 315 315 314 313 313 312 313 314 316 314 311 313 315 321 324 326 324 313 323 326 316 326 327 314 314 315 311 311 313 318 323 321 310 306 304 304 313 310 303 302 301 300 299 298 297 297 296
317 318 318 315 314 315 316 317 319 318 319 321 322 322 322 322 321 320 318 314 313 313 312 313 313 312 316 316 313 313 314 315 318 318 318 317 316 316 315 315 315 314 315 312 312 312 311 315 314 313 314 311 317 327 328 322 327 329 317 322 329 320 322 322 315 315 315 312 311 313 317 321 317 307 304 303 306 315 309 303 302 300 300 298 297 297 296 296
317 318 318 315 314 315 317 318 318 318 320 321 322 322 321 321 320 317 315 313 314 315 313 314 313 313 316 314 314 315 313 314 316 317 318 317 316 316 315 313 312 311 313 311 312 312 311 314 312 312 315 314 318 326 327 322 324 327 318 317 325 321 319 320 319 316 314 314 313 313 314 317 316 309 306 303 307 315 309 302 301 299 299 298 297 297 296 295
318 318 317 316 315 315 317 318 317 318 321 321 321 322 321 320 318 315 315 315 315 315 314 313 312 316 319 314 314 315 313 313 316 316 317 317 316 315 314 312 308 309 312 312 312 313 313 316 317 318 317 314 315 319 323 325 325 328 323 319 322 319 317 320 319 316 316 317 316 316 315 317 317 313 309 303 305 311 306 300 300 299 298 298 297 296 296 295
319 319 317 316 315 316 317 317 317 318 320 321 322 321 319 317 315 315 314 314 317 320 320 317 316 321 321 315 314 314 313 313 315 315 315 316 314 312 312 309 311 313 314 315 313 313 318 318 318 319 317 315 315 316 319 322 322 326 328 328 327 322 320 320 319 317 314 315 317 317 317 320 318 316 310 304 303 305 303 300 300 299 298 298 297 296 296 295
320 319 318 316 315 317 318 318 317 317 318 320 321 319 320 321 320 320 317 315 320 321 322 321 319 322 319 314 314 314 313 313 313 314 313 313 312 312 312 309 314 316 315 320 316 312 317 318 318 318 317 317 315 313 315 319 319 320 323 326 325 323 321 318 318 318 313 314 320 317 317 320 317 315 309 303 303 303 302 301 300 299 298 297 297 296 296 295
320 320 319 316 315 317 319 318 317 317 318 320 320 319 324 327 324 323 323 322 319 314 318 319 315 317 315 312 314 313 314 314 312 313 313 312 311 312 313 312 315 315 316 322 317 310 313 317 319 317 315 315 314 312 312 315 316 315 317 319 320 320 318 315 314 315 312 313 319 315 315 319 316 312 306 304 306 304 301 301 299 298 298 297 297 296 296 296
320 319 319 316 316 318 319 318 317 317 318 319 319 318 319 320 319 318 320 326 323 314 316 316 312 315 314 311 313 312 315 317 315 313 313 313 312 312 315 315 317 318 316 317 316 314 315 318 317 314 315 315 314 313 311 313 313 314 316 315 317 319 318 319 315 313 312 313 320 318 316 318 316 307 303 303 304 301 299 300 299 298 298 298 297 296 296 296
319 318 318 317 316 318 319 318 318 318 318 319 319 319 317 317 317 316 318 327 329 320 318 319 317 319 317 314 313 313 315 319 318 316 313 312 313 314 316 315 317 320 317 316 317 319 320 321 317 313 316 316 315 316 313 314 313 315 317 316 319 318 318 325 320 315 314 312 317 318 315 318 316 307 303 301 300 299 298 299 298 298 298 297 296 296 296 296
318 318 318 316 315 318 319 319 318 318 319 319 319 320 318 318 318 317 319 324 326 323 320 319 318 322 322 316 314 315 316 319 320 317 313 313 314 314 316 317 318 320 317 316 318 319 321 322 316 314 316 315 315 317 316 315 316 318 319 317 319 319 319 324 320 317 318 316 314 314 317 325 321 314 309 302 300 300 299 299 298 298 297 297 296 296 295 295
319 318 318 316 315 318 319 320 319 319 319 318 320 321 319 319 317 315 321 326 327 325 319 315 317 322 321 315 314 316 317 319 320 316 311 312 314 314 315 316 318 320 317 315 316 317 319 318 317 318 317 314 315 318 319 319 319 322 324 319 319 320 320 320 317 316 321 323 316 312 322 334 328 320 312 304 303 303 301 300 300 298 298 298 298 297 296 295
319 319 318 315 315 319 320 320 320 319 320 319 320 322 319 318 316 315 323 330 330 327 322 319 320 321 317 314 314 316 321 321 314 312 311 311 312 314 316 315 315 319 318 316 316 319 319 315 316 319 319 317 317 319 320 318 319 323 323 320 317 316 317 318 317 318 324 325 315 310 318 330 331 326 314 305 306 304 301 301 300 299 299 298 298 298 297 296
319 319 318 315 316 320 320 320 320 319 322 322 321 321 319 318 316 314 322 331 331 326 323 320 317 318 316 312 312 320 327 321 312 310 311 312 311 312 317 317 315 317 316 317 321 321 319 316 316 317 319 320 319 322 320 316 322 326 321 319 320 318 319 320 318 319 323 322 318 317 317 319 326 323 310 305 308 305 301 301 300 299 299 298 298 298 297 296
318 318 317 316 318 320 320 320 320 319 322 322 320 319 318 317 316 318 326 335 333 324 321 319 314 313 312 308 312 320 319 315 318 315 308 309 311 312 318 321 319 318 315 319 325 321 316 317 319 317 318 319 319 324 320 316 323 324 316 317 320 320 322 323 321 321 318 316 322 326 317 316 326 322 308 304 309 308 305 303 301 300 299 298 298 297 296 295
317 317 316 317 319 320 319 321 320 320 321 320 320 319 317 316 318 323 330 333 330 320 318 316 312 311 312 310 313 315 310 311 318 315 308 309 311 311 317 319 319 317 313 317 325 321 314 313 317 318 320 321 321 320 315 316 321 316 310 315 317 317 320 322 322 322 317 316 325 329 319 318 328 327 314 308 312 313 308 304 301 301 300 299 298 297 296 295
317 316 316 318 320 319 319 321 320 321 321 319 319 318 316 318 322 329 332 332 329 321 315 313 313 313 315 315 315 313 311 312 313 312 312 312 312 312 312 312 316 318 315 318 322 319 313 309 311 316 318 319 318 312 309 313 315 310 314 321 319 319 320 322 323 320 317 322 326 323 319 317 322 328 321 314 315 314 309 305 302 300 300 300 299 298 296 295
317 316 317 318 319 319 320 321 321 322 320 318 318 316 318 322 326 334 333 329 328 321 315 315 313 314 317 319 319 314 312 313 311 313 315 313 314 315 313 312 317 322 321 320 320 317 314 312 313 314 313 314 316 312 308 309 309 313 322 324 321 322 320 320 324 320 320 328 325 317 315 314 318 327 324 316 312 309 308 306 302 300 300 299 298 298 297 296
317 316 317 318 319 319 321 321 321 322 319 317 317 318 324 327 328 335 330 325 329 324 320 320 314 315 318 318 319 314 313 315 312 315 318 315 316 315 316 318 321 325 325 322 321 318 317 318 316 313 311 313 320 318 312 310 310 316 323 322 323 325 321 322 325 321 322 324 316 313 315 314 317 322 320 317 312 306 305 304 301 299 299 298 298 298 297 297
318 316 316 318 319 319 320 321 321 322 319 316 317 321 327 331 332 333 328 326 330 322 319 320 315 316 318 317 318 312 312 316 313 314 316 315 317 315 316 317 317 325 327 320 319 319 321 320 315 313 313 313 318 320 317 316 314 315 320 323 325 325 325 328 325 319 320 319 311 310 314 316 317 317 316 315 309 302 301 302 301 299 298 297 297 297 297 297
317 316 315 317 318 318 320 321 321 322 319 316 320 323 326 331 333 332 329 328 327 321 318 318 314 315 317 318 319 314 314 316 312 314 314 313 317 318 318 315 312 321 325 319 318 320 323 325 319 317 317 315 314 316 321 322 315 314 318 320 322 327 329 328 325 324 325 321 313 309 313 322 323 314 308 306 302 298 300 300 299 299 298 297 297 297 297 296
318 316 315 316 317 318 319 320 321 322 319 318 323 325 327 331 331 331 331 327 325 323 318 315 314 316 317 317 316 314 316 317 312 314 315 315 319 319 321 318 313 319 323 320 320 318 319 325 322 315 313 313 314 315 317 319 316 314 314 316 320 324 325 321 319 321 321 320 317 314 317 323 318 308 300 300 299 298 299 298 298 299 298 297 297 297 296 296
318 316 316 316 317 318 318 319 321 320 318 320 325 327 327 329 330 331 330 326 325 321 316 316 318 318 317 316 315 313 313 316 315 314 314 315 317 317 320 320 315 315 318 320 323 319 318 323 318 312 311 311 312 314 314 317 319 314 312 319 319 315 321 322 315 312 313 318 320 317 319 320 313 309 303 300 301 300 298 298 298 298 297 297 297 296 295 295
318 317 316 316 316 318 318 318 320 319 318 322 327 328 326 327 329 330 327 323 320 316 316 321 320 318 318 317 317 315 314 317 315 314 315 315 316 316 317 320 316 313 315 319 322 321 323 326 318 312 314 310 306 312 314 312 316 317 317 321 316 311 318 322 319 318 317 320 321 317 319 320 318 316 308 302 305 304 299 298 298 297 297 297 296 296 295 294
318 317 317 317 316 317 318 318 318 317 319 323 326 328 328 327 325 326 325 321 317 315 320 325 322 319 319 318 319 316 315 318 314 313 316 315 317 317 316 318 316 312 313 314 317 319 320 324 319 311 313 311 307 313 316 310 310 316 317 315 314 317 321 319 319 323 322 322 325 320 316 316 317 319 314 310 315 312 301 298 298 297 297 296 296 295 295 294
318 318 319 318 317 317 318 318 317 317 321 324 326 327 327 326 324 325 325 321 319 318 321 325 324 321 319 318 320 316 314 317 314 314 317 316 317 316 313 317 317 312 312 311 315 319 316 321 322 312 310 312 311 314 319 315 309 310 311 310 313 318 321 320 318 321 322 322 324 322 318 317 317 318 318 318 318 312 302 298 298 297 297 296 295 295 294 294
317 319 320 317 317 318 317 317 317 318 322 324 325 325 325 325 323 324 323 322 323 320 321 326 326 324 322 319 320 318 316 317 313 314 319 316 317 316 313 317 317 312 312 311 314 319 315 316 322 315 309 313 316 316 318 317 313 313 314 313 314 314 316 319 316 316 321 323 326 324 319 319 318 315 317 318 314 306 301 300 298 297 296 295 295 295 295 294
316 320 319 316 317 318 317 317 318 320 322 323 324 324 323 323 323 322 320 322 325 322 322 328 327 325 325 321 321 320 318 319 316 315 319 317 318 320 316 317 316 313 313 312 313 318 316 317 323 320 314 317 321 316 312 314 314 314 315 315 316 315 316 318 316 316 318 320 324 324 319 320 318 310 310 314 311 304 301 300 298 297 297 296 295 296 295 294
317 321 317 313 316 317 317 319 320 320 322 323 323 324 322 322 323 322 319 321 326 323 321 325 325 326 326 322 322 321 320 321 318 317 320 319 320 321 318 317 315 313 315 315 315 318 318 319 322 322 319 319 317 311 308 311 312 313 315 316 317 316 317 320 318 317 317 315 316 318 319 319 313 306 306 308 307 304 300 299 298 297 297 296 296 296 295 295
319 319 313 310 314 316 318 322 321 320 321 321 323 324 322 322 323 322 320 320 323 323 322 323 323 325 326 322 321 320 319 320 318 318 321 322 321 319 317 317 315 315 318 319 317 316 317 319 321 321 321 318 313 310 309 309 311 315 316 315 316 317 317 318 316 317 319 317 315 317 318 316 310 305 305 304 302 302 300 299 299 298 297 297 296 296 295 294
316 314 311 310 313 315 320 323 322 321 321 320 322 322 321 322 322 321 321 321 322 323 323 323 322 324 324 323 322 321 320 320 319 318 320 322 318 314 314 316 315 316 318 319 319 317 317 321 322 321 323 321 316 315 314 312 313 317 319 316 315 318 317 315 314 316 317 317 317 317 318 318 313 306 304 303 301 301 299 298 299 298 298 297 296 296 295 294
314 313 311 310 310 313 317 319 321 322 321 321 322 322 321 321 320 320 320 321 322 323 323 322 322 323 323 321 321 322 321 322 322 320 319 320 316 312 314 315 314 317 318 317 319 318 318 322 321 320 322 323 322 321 319 318 317 316 318 317 314 315 316 315 316 316 316 317 317 316 317 317 313 307 306 305 303 303 302 298 298 299 299 298 297 296 295 295
316 315 312 310 310 312 313 313 316 320 321 321 321 321 321 321 319 318 319 321 321 321 322 322 321 321 322 321 322 323 321 320 321 321 320 320 317 313 311 312 313 317 317 316 317 318 320 321 320 320 321 321 322 320 317 319 320 317 317 317 316 314 313 315 316 316 316 316 315 315 316 317 315 311 309 307 306 307 305 300 299 300 299 298 297 296 296 296
316 316 313 312 312 312 312 312 314 317 319 321 321 320 321 321 320 318 319 320 320 319 320 320 320 321 322 321 321 322 322 320 320 321 320 320 317 311 307 309 312 313 314 314 315 318 320 320 318 319 319 319 319 317 315 317 319 319 318 318 318 316 314 313 314 316 316 315 316 316 315 316 317 315 312 310 308 306 304 302 301 300 299 298 297 297 298 297
312 313 312 312 314 313 313 312 313 314 316 318 319 318 320 321 320 320 319 318 318 319 320 320 319 321 321 321 322 323 321 321 321 320 319 318 316 313 310 310 309 309 312 313 312 316 320 319 318 318 318 317 315 314 316 317 315 316 317 317 317 316 313 312 312 314 315 315 316 315 314 315 314 313 313 311 307 306 305 304 302 300 299 299 299 299 299 298
308 310 308 309 312 312 312 312 312 313 314 315 316 316 318 320 319 319 319 317 317 318 320 321 320 319 319 320 322 322 321 322 322 319 318 317 316 315 315 314 310 307 310 312 311 314 317 318 317 317 317 318 314 311 313 314 313 314 314 314 314 313 310 309 310 311 312 313 313 311 311 312 311 311 313 309 305 305 304 302 301 301 301 302 302 301 301 299
307 308 307 308 309 308 310 312 312 312 312 312 313 313 314 317 318 317 316 317 318 318 318 320 319 318 318 318 321 322 320 320 321 319 318 317 316 315 316 318 314 308 308 311 310 311 314 316 314 313 316 316 310 307 308 309 311 312 313 312 310 310 308 307 308 309 309 310 310 308 309 309 307 310 312 308 305 306 306 305 304 303 303 303 303 302 301 299
300 300 303 309 309 307 308 310 309 311 310 309 311 311 311 313 314 315 315 315 316 317 317 318 319 317 316 316 319 319 317 317 318 318 318 317 316 315 316 316 316 312 310 310 311 311 312 313 311 311 317 316 308 305 306 305 305 308 310 310 308 310 310 307 306 308 309 310 309 308 309 309 307 307 307 306 306 306 306 306 304 302 302 302 304 305 303 300
298 298 301 308 309 306 306 307 306 309 310 310 309 309 310 311 311 313 314 313 314 315 315 316 316 315 315 314 316 316 315 316 314 311 312 313 313 313 314 313 313 314 312 309 310 311 311 312 312 312 317 314 305 303 304 305 307 310 310 309 307 308 308 305 305 306 306 307 308 309 309 307 307 306 305 305 305 304 304 304 303 302 301 300 302 302 301 300
Wind_Speed
3 4 4 4 4 3 3 4 4 3 2 2 2 2 2 2 2 2 3 4 4 5 6 7 8 9 10 11 12 14 16 16 16 13 8 6 3 4 3 0 1 2 4 4 2 3 3 4 5 7 5 3 4 3 3 3 2 5 4 3 2 1 2 4 6 5 2 3 5 5 5 3 5 5 3 1 3 4 3 3 5 5 4 5 6 11 14 14
5 5 5 5 5 4 4 4 4 3 2 2 2 2 1 1 1 2 3 4 5 6 6 7 8 9 9 11 12 14 16 16 16 10 5 3 2 6 4 1 2 4 4 3 2 3 4 2 3 6 6 3 3 3 2 2 3 4 3 3 2 5 4 5 6 5 3 2 4 5 3 1 4 3 3 3 5 6 5 6 3 4 8 7 10 15 15 14
6 6 6 5 4 4 4 4 4 4 3 2 2 2 1 1 2 2 3 4 5 6 7 7 8 8 9 10 11 14 16 15 10 5 4 2 5 6 3 3 4 6 4 3 3 4 5 3 3 5 5 3 2 3 3 3 2 2 4 2 5 6 4 5 6 6 5 2 3 5 2 1 4 2 1 2 6 7 4 6 3 3 8 8 10 16 17 16
7 7 7 6 5 5 4 4 4 4 4 2 2 1 1 2 2 3 3 4 5 6 7 8 8 8 9 10 10 12 13 9 4 2 3 3 6 5 3 4 5 6 4 3 5 4 5 5 6 5 4 3 4 3 2 3 1 2 3 3 5 3 2 5 6 7 5 2 2 2 4 5 4 1 1 2 5 8 3 4 2 1 6 6 7 12 17 19
8 9 9 7 6 5 5 4 4 3 3 2 1 2 2 3 3 3 4 5 6 7 7 8 9 8 8 9 9 10 9 6 2 2 2 2 4 4 3 4 5 6 3 3 5 4 5 5 6 6 4 2 4 4 1 3 2 1 2 5 5 4 2 5 6 5 3 2 1 2 4 5 1 1 3 4 2 6 1 2 2 2 1 4 6 8 14 16
9 10 9 8 7 6 5 4 3 2 2 2 1 2 3 4 4 4 4 5 6 7 8 9 9 8 8 7 6 6 5 1 4 1 1 2 3 3 3 4 5 5 4 4 4 5 5 5 6 4 3 2 2 2 1 3 3 0 3 2 3 4 4 4 3 4 3 3 3 3 3 2 2 4 3 5 6 5 2 3 6 7 6 8 10 10 11 12
10 9 9 9 7 6 5 3 3 2 2 2 2 2 3 4 5 5 5 6 7 8 8 9 9 8 7 5 4 4 4 3 7 4 5 4 5 4 3 4 5 4 5 4 4 4 4 5 3 3 4 3 0 1 0 3 4 2 2 4 3 4 5 5 1 1 3 2 6 3 4 4 4 5 2 3 4 1 6 8 10 10 12 13 13 11 10 10
9 9 9 9 8 7 5 3 3 3 2 2 2 3 3 4 5 6 6 6 7 8 8 8 8 6 5 2 1 4 2 5 7 6 7 5 6 5 4 4 3 4 5 4 3 5 4 4 3 4 3 1 3 2 1 2 3 2 4 4 2 2 6 6 5 4 3 5 5 2 6 8 5 3 2 3 1 5 6 9 9 10 14 14 12 10 9 11
9 8 8 8 8 7 4 3 4 3 2 2 2 3 4 5 5 6 6 6 7 7 7 7 6 4 2 1 5 3 4 5 4 5 5 5 6 6 5 4 3 4 5 4 4 6 4 3 4 4 3 2 4 2 1 0 2 4 5 3 3 5 6 6 6 5 2 4 2 2 9 7 3 1 1 4 2 5 7 9 7 9 12 11 9 9 9 10
9 9 8 8 8 7 5 5 4 4 2 2 2 3 4 5 5 6 6 6 6 6 7 5 5 2 1 2 6 0 4 2 3 3 3 4 5 6 6 4 3 5 5 4 4 7 4 5 5 5 4 3 3 1 0 2 2 3 2 3 5 7 7 4 5 5 2 3 5 5 10 6 4 1 1 4 3 3 8 10 8 10 11 9 8 8 10 12
10 8 8 8 8 7 6 6 5 4 3 2 2 3 4 5 5 5 6 6 6 6 6 4 4 2 3 4 5 3 4 2 3 3 1 3 4 5 5 4 3 4 6 4 5 6 2 5 8 6 2 2 3 1 2 3 2 1 1 5 7 7 7 4 5 6 2 3 5 7 6 4 3 1 3 4 5 5 10 9 8 11 8 7 8 7 10 12
11 8 7 8 8 7 6 6 5 4 3 2 2 2 4 5 5 5 6 6 6 6 6 4 3 3 3 2 4 8 5 2 3 3 2 2 4 5 4 3 3 4 5 3 4 5 2 6 9 5 1 3 3 0 2 2 2 1 3 4 8 9 7 6 4 3 0 1 3 6 2 4 2 2 3 2 4 8 11 9 8 9 7 7 7 6 8 11
11 9 8 8 8 7 6 6 5 5 3 2 2 2 3 5 5 6 6 6 7 6 5 4 3 4 4 0 5 9 10 7 5 4 2 3 4 4 4 4 4 3 4 2 3 5 4 7 8 4 2 5 1 1 2 3 2 1 3 2 6 7 7 6 2 3 2 0 2 3 2 6 5 1 2 1 5 8 10 7 7 7 6 7 6 6 7 11
11 9 8 7 8 8 6 6 6 5 2 2 2 2 4 5 5 6 6 6 6 6 5 2 3 5 3 3 5 6 9 9 7 5 4 5 6 6 5 4 3 3 3 3 4 5 5 7 7 5 2 3 1 2 4 6 3 1 2 2 3 2 5 6 2 2 2 1 2 3 2 6 6 3 4 2 3 8 8 6 7 6 6 6 6 7 6 10
11 9 7 7 7 7 7 7 6 4 2 3 2 3 4 5 6 6 6 5 4 3 1 2 5 5 2 4 5 4 7 7 7 7 6 7 7 6 5 5 5 5 6 6 7 6 7 7 7 4 1 2 3 3 3 5 4 2 1 3 3 2 5 8 3 1 1 2 5 4 2 7 6 3 7 6 4 9 9 6 7 7 7 7 6 7 6 8
11 9 7 7 7 7 8 7 6 3 3 3 2 3 4 5 5 4 3 2 2 3 3 3 6 5 1 3 2 2 5 5 6 8 9 8 6 4 6 7 6 7 7 6 7 7 7 6 4 2 1 2 4 4 3 4 4 3 0 4 3 3 3 6 3 1 0 0 5 3 2 5 3 2 7 8 6 9 10 7 7 7 6 6 5 6 5 6
12 10 8 7 8 8 9 7 5 3 3 2 2 3 4 4 3 1 1 4 5 4 5 4 5 3 1 2 1 2 3 4 6 8 10 8 5 5 8 7 5 6 7 6 5 4 5 4 1 0 2 3 3 5 3 3 4 3 1 3 4 3 3 3 3 3 4 3 2 2 1 6 7 1 8 9 6 10 10 6 6 5 5 5 5 5 5 6
10 10 9 8 9 10 10 7 5 4 3 2 2 3 2 2 0 2 4 6 6 5 4 2 4 1 3 2 2 2 1 4 6 7 9 7 5 7 8 5 5 7 6 4 2 2 3 3 2 1 3 2 2 5 3 5 5 4 3 3 3 3 4 4 4 2 5 5 2 1 2 8 11 4 9 9 7 10 8 5 5 4 4 4 4 5 5 5
12 11 10 8 9 11 10 7 5 4 3 2 2 1 2 2 1 2 4 4 3 2 1 3 3 2 3 2 1 2 5 6 6 6 7 7 8 8 7 6 7 7 5 2 0 1 1 3 3 1 2 3 5 7 9 9 6 6 5 4 4 4 5 5 5 4 1 3 4 4 5 8 9 5 7 6 7 9 6 5 4 4 4 4 4 4 4 5
17 14 11 9 11 11 9 7 4 3 4 3 1 2 2 1 2 2 2 2 5 5 3 5 6 2 2 1 2 6 6 5 3 4 8 9 11 10 6 4 6 5 3 4 2 1 3 3 3 6 6 8 10 10 8 4 5 5 4 4 4 5 5 4 3 5 1 1 5 5 5 8 6 3 5 3 5 7 5 5 4 4 4 3 4 4 5 5
18 15 12 10 12 12 9 7 4 4 5 4 3 3 2 3 2 2 2 4 9 10 5 5 6 4 3 2 6 8 5 2 2 3 9 9 10 9 1 2 4 1 1 3 3 2 4 4 9 9 8 8 8 8 5 3 4 3 4 3 3 4 6 5 3 5 1 2 5 2 3 8 4 2 4 3 5 5 3 3 3 3 3 3 4 5 5 4
17 15 14 12 13 13 10 7 4 6 6 4 4 3 3 3 2 0 1 3 8 9 9 6 3 6 5 3 7 7 2 0 1 2 8 8 5 5 1 3 5 3 1 3 3 2 2 5 11 8 5 5 2 4 6 5 4 2 2 2 4 3 3 6 3 4 2 2 4 3 3 7 1 4 4 4 5 3 3 3 3 3 3 4 4 4 4 4
18 17 15 13 15 14 10 6 5 6 6 6 6 5 2 1 1 1 2 0 5 4 5 5 4 6 5 3 7 7 2 4 3 5 10 9 3 3 4 4 5 4 3 4 5 4 3 7 10 5 8 6 2 3 6 4 2 3 3 2 4 2 0 4 3 4 2 1 1 2 3 6 1 4 4 4 4 4 4 4 4 3 3 3 3 3 4 4
21 19 16 15 17 15 10 6 6 7 9 10 10 8 3 1 3 3 2 0 4 4 4 6 5 5 6 4 8 11 4 4 4 5 11 11 4 3 4 5 5 4 4 7 7 6 6 6 2 5 6 7 4 3 6 5 2 3 5 6 4 3 5 6 3 4 3 3 1 3 3 6 3 1 1 2 2 3 3 4 5 4 3 3 3 3 4 4
23 21 17 17 19 16 11 7 8 11 10 8 11 11 6 3 4 4 2 2 3 5 3 4 4 4 7 6 9 10 2 2 3 4 11 12 7 4 2 3 4 5 6 5 5 5 8 5 3 4 3 5 6 4 5 7 3 4 5 9 9 7 7 5 3 4 4 4 3 2 2 5 4 2 3 2 1 3 3 4 4 4 4 3 4 4 4 4
25 22 19 20 21 17 11 5 9 12 9 7 9 10 9 6 6 5 3 3 4 4 1 3 3 5 8 5 6 6 2 3 2 2 8 9 5 5 2 1 1 3 5 5 3 3 5 2 2 4 4 5 5 4 6 7 5 2 4 8 9 7 5 3 2 2 0 3 2 2 2 4 5 4 3 3 2 3 2 3 3 2 3 3 3 3 3 4
26 23 21 22 24 20 11 4 8 11 5 6 9 11 11 9 8 4 2 3 5 3 4 1 0 5 7 3 3 6 2 3 2 4 3 4 2 3 3 4 2 2 3 4 1 2 3 0 2 4 5 5 5 5 6 8 7 3 4 5 6 6 6 5 5 4 3 3 3 3 2 2 4 4 2 3 3 1 0 0 1 1 1 1 2 3 3 3
27 24 23 25 27 24 14 4 9 12 4 4 11 14 12 10 7 2 3 1 5 2 4 1 1 3 2 1 3 5 2 1 4 1 1 3 1 3 2 6 6 4 2 5 4 3 2 2 3 6 4 5 6 4 8 10 5 4 3 6 6 6 6 5 6 3 1 1 4 4 0 2 5 4 2 1 2 3 4 5 4 4 3 2 1 1 1 2
27 26 26 28 27 24 18 9 9 10 6 6 14 15 13 11 6 4 3 3 2 2 2 1 2 2 2 3 3 3 1 2 2 2 2 3 1 3 3 5 6 6 1 3 5 3 1 3 5 7 5 5 4 1 6 8 3 3 5 7 5 5 5 4 5 4 2 1 5 6 3 2 4 4 1 1 4 6 6 6 5 5 5 4 3 2 2 0
28 28 29 31 26 23 22 17 14 10 6 10 16 16 14 8 3 4 3 5 1 1 1 2 2 1 5 6 0 1 2 2 1 1 2 1 2 5 2 3 6 5 1 4 1 3 1 1 2 4 3 5 4 3 1 2 3 6 6 6 6 6 5 3 2 4 3 2 6 6 4 3 3 5 3 4 4 5 7 5 5 5 5 6 5 4 4 2
29 29 32 34 28 26 19 15 21 15 8 15 18 15 10 3 3 4 7 3 2 1 2 2 1 3 7 8 3 1 3 2 0 3 2 1 2 4 2 2 4 4 2 4 3 4 4 1 1 2 3 4 5 5 3 3 3 5 4 4 4 3 4 4 4 3 1 5 5 3 2 4 4 5 4 5 4 4 7 7 9 10 8 7 6 5 4 4
31 30 35 37 31 29 18 12 24 21 12 18 18 10 5 2 2 7 5 1 1 3 4 4 3 5 7 4 3 3 4 1 1 3 4 3 3 3 3 4 4 3 2 4 3 3 3 4 3 1 2 4 6 4 4 4 3 4 4 5 4 2 3 2 3 1 3 5 3 1 2 3 5 6 5 6 5 4 4 5 9 12 11 9 7 6 5 4
33 30 36 39 33 30 23 16 23 23 18 19 13 3 2 4 8 9 7 2 2 3 3 4 3 5 7 4 2 3 3 2 3 2 2 3 3 4 2 2 6 4 1 3 2 0 3 5 1 2 2 3 7 5 2 1 2 4 5 5 4 2 1 2 3 2 4 4 2 1 1 1 4 4 4 5 4 4 4 4 6 10 11 10 8 6 5 4
33 32 35 39 36 32 28 22 21 23 24 18 7 2 3 8 8 7 10 7 1 2 2 4 5 5 6 3 3 5 3 2 5 4 2 3 4 4 4 4 4 4 3 3 2 4 3 4 3 5 2 4 8 6 5 6 4 3 4 5 4 4 4 4 4 3 4 2 2 2 1 3 4 2 3 4 3 3 4 5 6 7 7 7 6 5 5 5
32 32 32 34 34 33 31 27 22 25 25 13 5 6 8 10 6 4 8 6 2 2 3 3 6 6 4 3 3 6 4 3 4 5 3 4 4 5 5 6 6 4 4 4 2 2 3 5 5 3 1 5 7 3 5 6 3 2 2 4 3 4 4 1 3 5 3 2 3 2 3 4 4 1 3 2 2 3 2 2 6 7 6 6 5 6 6 6
32 30 30 33 33 33 34 31 26 28 23 9 5 9 10 8 4 3 5 4 5 6 7 3 3 5 4 2 2 6 3 1 5 4 2 3 4 5 4 5 8 8 6 5 3 2 2 4 5 2 2 3 3 2 3 3 3 2 2 3 4 3 6 3 2 1 3 1 4 2 3 4 1 1 3 2 2 2 2 3 6 8 7 7 7 7 7 7
33 29 28 32 35 36 37 34 31 29 18 6 8 10 7 5 4 4 3 3 5 8 9 4 4 5 6 4 4 7 3 1 4 4 3 3 3 6 6 4 6 13 11 5 2 3 4 3 4 1 1 0 1 4 4 2 3 5 3 5 3 2 4 3 1 3 3 3 4 1 4 4 1 2 2 2 2 3 3 4 6 6 7 8 9 8 8 7
33 25 20 29 39 39 37 38 34 24 9 4 10 10 6 4 4 4 3 4 5 7 7 7 6 6 7 6 5 7 7 4 5 5 4 4 4 6 9 5 5 13 13 6 1 2 4 2 5 0 2 1 2 4 3 4 3 5 4 3 3 3 2 2 2 2 1 3 4 2 3 4 5 4 2 4 7 8 7 6 7 9 10 10 11 10 8 7
25 14 10 26 40 39 37 39 30 14 3 5 11 11 5 3 3 3 5 4 4 5 7 6 4 4 6 6 5 7 9 7 8 6 4 4 4 5 8 4 4 9 10 8 5 1 3 2 3 2 1 1 2 2 4 2 1 3 1 1 2 2 3 2 2 3 2 2 3 4 3 3 5 6 7 10 11 10 10 9 10 12 13 12 11 9 8 7
13 5 3 16 35 40 38 31 17 6 5 7 9 8 3 2 3 3 4 4 2 2 4 4 4 4 5 5 3 5 7 7 8 6 4 5 4 4 6 4 5 5 4 6 6 1 3 2 3 2 2 1 2 2 5 6 3 2 2 3 2 1 2 1 1 3 3 3 2 3 5 5 4 3 8 9 8 9 12 12 11 12 12 12 10 9 9 8
7 5 1 12 31 39 31 18 8 5 6 8 10 9 4 3 4 2 1 2 2 1 1 3 4 3 4 4 3 4 6 5 7 6 4 6 4 3 5 5 8 8 5 5 5 3 2 2 3 2 1 3 4 4 5 6 5 4 4 5 6 4 3 2 4 1 2 2 4 3 6 7 3 2 4 4 4 7 10 11 10 11 13 12 11 10 9 9
5 6 2 14 33 35 20 7 5 5 6 7 7 6 4 3 4 4 2 1 2 1 1 2 3 2 3 3 2 4 6 5 6 6 4 6 6 4 3 4 8 10 7 4 3 3 3 3 3 3 3 4 5 3 3 4 3 3 2 3 4 3 4 5 6 3 2 1 2 3 3 5 2 2 3 4 5 5 8 10 10 10 12 12 11 10 9 10
5 4 3 14 34 32 13 6 7 6 6 4 3 3 4 3 4 5 4 3 3 2 2 2 2 3 3 3 2 3 4 3 6 6 3 4 5 2 2 5 8 8 5 3 2 2 2 3 2 1 3 2 3 2 1 1 2 2 3 2 4 3 2 3 4 2 3 4 2 2 4 4 1 1 2 3 4 4 6 10 10 9 9 10 11 10 10 10
3 3 3 10 27 24 9 7 10 9 7 3 3 5 2 1 5 7 6 6 4 3 4 3 2 3 3 3 4 4 5 3 4 4 2 3 3 1 1 3 6 6 3 2 4 5 3 3 4 1 2 3 2 1 1 1 2 3 3 2 3 4 4 2 1 2 2 5 4 2 6 5 1 1 1 3 1 3 5 7 7 7 7 8 9 10 9 7
3 2 2 4 13 11 4 4 6 9 10 7 6 8 5 2 3 6 8 7 4 4 4 2 2 4 3 3 3 3 5 3 2 2 1 2 2 2 2 1 1 2 1 1 4 6 4 3 5 5 6 6 5 4 4 3 3 2 3 4 5 6 7 3 2 2 4 4 6 5 8 4 3 1 1 3 2 3 5 5 4 5 6 8 9 8 7 6
3 2 1 1 2 3 1 1 1 4 8 9 6 6 10 7 2 1 6 6 4 4 3 1 3 4 3 4 5 5 6 4 2 2 3 3 2 1 1 2 2 2 2 3 4 4 3 1 5 7 9 9 5 3 2 4 5 4 5 6 7 8 8 5 2 4 5 3 5 9 6 2 3 3 2 2 3 6 6 6 6 7 7 8 7 7 6 6
2 2 3 3 1 2 2 1 3 2 4 8 5 4 10 11 3 1 4 4 4 6 2 2 3 5 5 7 7 6 7 5 4 4 4 4 2 1 1 2 3 3 4 4 2 2 4 2 6 8 9 6 3 3 2 3 4 6 6 8 10 9 9 9 8 7 5 4 8 9 4 4 7 6 6 7 7 7 6 8 9 8 7 6 5 6 7 7
1 1 2 1 1 3 4 4 5 3 2 5 3 1 7 12 9 5 4 1 3 6 4 1 4 9 10 10 8 5 5 5 5 5 4 3 3 1 1 1 2 2 4 2 2 2 4 4 6 6 8 8 3 4 5 4 3 5 7 11 13 12 12 12 12 11 8 8 12 6 6 8 8 5 8 9 8 8 8 7 7 5 5 5 5 6 8 8
1 1 1 1 1 2 2 4 7 5 3 2 1 1 5 11 11 6 3 3 3 5 6 7 8 9 9 9 8 6 7 7 6 6 4 3 4 4 2 1 1 1 3 3 1 1 3 4 4 5 8 9 3 2 4 6 5 5 8 12 12 11 11 11 12 12 9 9 10 2 4 10 6 5 7 7 5 5 4 1 2 3 4 6 6 7 8 8
1 1 0 2 2 1 1 3 6 5 2 2 1 2 2 5 7 2 2 3 4 3 6 9 8 7 7 8 8 9 9 7 5 5 5 4 3 3 2 3 3 1 1 3 2 1 2 2 2 4 4 5 1 2 2 4 5 6 11 13 7 5 7 9 10 5 3 7 9 4 7 11 4 6 6 4 3 3 3 3 4 4 5 5 6 7 8 7
3 1 1 2 2 1 1 2 3 4 2 2 3 3 3 3 4 2 2 1 2 3 5 6 5 5 3 4 7 8 5 4 4 4 6 4 3 3 2 3 5 5 3 3 2 2 3 1 2 3 4 4 2 4 3 2 1 6 15 13 6 6 7 7 6 6 7 9 9 6 9 10 3 5 4 5 5 5 6 7 5 5 5 6 7 8 8 7
4 3 2 2 1 3 3 2 2 2 3 3 4 4 4 5 3 3 1 3 2 1 1 2 4 4 2 4 8 7 2 3 3 3 4 3 2 2 2 3 5 6 6 5 2 2 5 4 2 4 5 2 0 4 5 3 1 8 13 10 10 11 8 2 3 8 10 7 6 7 9 6 2 5 4 6 7 7 7 7 6 7 7 6 8 8 7 7
Wind_Direction
281 264 250 243 242 247 251 258 262 265 268 271 286 288 303 320 322 342 334 335 333 329 333 333 338 341 341 342 342 342 338 334 329 325 317 314 285 194 188 92 94 166 172 167 153 136 86 44 25 23 40 42 12 342 1 14 57 53 81 82 27 181 177 179 184 193 164 292 280 327 21 47 306 308 326 351 40 353 320 301 271 286 292 271 312 342 347 351
289 283 272 261 251 246 252 264 274 280 279 272 283 287 308 336 347 3 349 339 332 329 332 333 338 339 342 344 344 345 341 334 328 327 333 331 184 171 175 150 145 162 166 163 156 132 106 45 12 39 45 43 346 338 14 7 56 80 117 68 270 205 206 196 181 194 196 264 262 298 350 110 254 278 359 322 310 345 337 300 316 328 313 323 346 355 358 9
294 296 289 280 270 255 255 266 272 275 279 270 273 289 324 345 346 351 349 341 332 331 329 330 335 339 344 342 347 350 343 337 332 342 21 43 152 158 155 159 156 158 166 156 146 113 102 121 82 59 44 50 353 345 25 9 32 129 115 66 248 214 238 233 193 207 219 242 276 299 348 305 253 236 356 323 301 319 302 284 355 355 312 326 352 8 18 32
296 299 292 285 277 265 261 268 264 265 267 256 268 297 314 324 330 330 336 336 330 328 325 327 331 338 341 340 350 351 348 354 334 328 31 84 143 155 153 155 153 159 169 137 137 105 85 98 77 61 56 42 339 360 29 338 14 133 126 174 223 180 251 241 199 220 231 207 234 296 351 311 279 195 193 70 333 315 298 252 233 272 300 327 357 17 28 37
294 296 293 283 270 263 265 266 263 261 260 251 261 282 293 305 319 330 337 337 329 325 323 324 327 335 337 339 352 353 6 25 295 302 21 117 149 161 163 156 155 166 160 118 129 103 78 80 64 51 54 36 342 20 6 310 69 138 215 196 188 145 246 245 191 217 204 138 250 300 323 297 289 91 177 135 275 278 306 223 178 84 20 43 34 26 30 33
290 294 293 287 275 265 262 260 256 252 255 253 261 286 304 308 317 329 336 337 328 323 322 322 325 331 333 335 347 7 50 44 266 286 316 246 198 180 171 176 163 171 162 122 119 102 74 55 53 59 49 35 9 37 309 317 39 191 276 273 215 174 223 252 179 199 148 102 271 256 294 300 356 314 204 173 228 246 17 83 97 73 78 78 55 41 32 28
287 292 290 285 278 271 265 247 230 231 240 249 272 294 310 313 318 324 334 336 325 321 320 321 324 325 329 333 337 26 82 244 267 265 268 253 230 218 184 187 166 180 185 140 112 108 88 65 75 124 83 38 188 153 1 347 33 114 268 306 277 191 220 258 312 169 144 203 251 258 322 297 278 291 262 210 235 355 46 72 84 75 67 62 52 42 33 28
283 286 284 279 269 267 261 234 221 224 228 249 292 304 312 319 322 323 334 335 324 319 316 317 322 324 330 342 67 18 2 247 265 266 261 245 235 228 204 199 176 197 195 176 152 139 118 107 152 150 90 353 180 154 30 6 29 135 230 274 289 228 246 276 305 285 239 238 250 305 291 269 243 226 296 295 62 64 65 68 65 69 58 50 48 37 30 29
277 273 273 270 260 256 242 223 221 219 226 251 293 312 319 327 331 330 335 332 323 315 312 315 317 321 319 80 89 19 277 240 263 267 257 241 237 230 223 214 200 212 182 183 180 156 162 170 187 174 147 187 162 144 7 294 290 216 213 272 305 297 294 307 301 285 268 244 197 240 273 279 279 173 312 312 66 85 72 58 42 59 55 45 45 35 31 30
268 267 266 263 256 245 223 215 220 215 224 244 287 316 322 331 335 334 335 328 322 313 311 310 305 298 230 114 91 28 258 249 287 271 251 236 233 224 221 217 218 217 174 168 173 154 169 192 176 145 133 131 148 140 99 158 202 203 203 296 286 297 304 305 287 295 335 268 190 213 272 301 329 17 120 308 359 79 68 51 35 55 54 44 42 34 34 33
260 268 269 265 256 241 217 211 212 207 214 230 286 308 319 331 333 332 333 324 320 315 310 305 294 262 178 129 126 209 257 273 283 288 267 223 217 211 210 218 226 210 181 160 176 175 181 184 151 119 131 153 140 73 256 200 132 127 12 316 297 316 305 271 278 288 310 276 188 189 264 320 346 14 190 277 351 59 74 54 37 51 46 37 37 33 35 33
257 265 271 274 264 244 222 211 204 199 206 219 268 297 321 329 331 329 329 323 319 318 312 308 283 208 148 102 194 225 245 254 270 296 282 213 195 198 194 203 198 189 188 154 182 196 188 174 143 111 205 153 132 346 230 206 78 60 45 337 307 343 324 289 304 298 117 259 172 158 281 311 265 182 219 292 45 67 69 55 38 45 36 32 32 30 36 29
256 261 268 280 277 258 226 210 205 197 202 233 271 303 324 327 333 329 327 322 320 321 315 308 258 180 138 299 237 233 243 249 264 278 254 204 181 169 153 161 162 168 192 163 172 178 167 174 144 111 134 119 147 205 105 51 39 316 44 39 313 350 325 297 6 3 1 217 171 145 288 285 258 229 333 346 98 74 60 49 38 37 28 29 25 28 33 26
252 260 269 281 282 264 227 211 203 191 218 264 278 316 326 330 330 325 327 323 320 317 311 304 191 158 132 253 259 256 249 246 250 245 211 191 163 133 125 132 139 138 152 147 146 142 145 156 124 97 105 88 130 138 47 13 17 324 10 39 352 349 283 293 336 2 0 33 58 113 208 270 277 342 356 332 122 93 75 53 38 36 26 25 21 26 25 23
253 263 273 282 280 258 223 208 194 189 253 266 287 323 324 329 324 327 332 324 328 333 341 126 158 139 84 276 269 267 247 234 224 214 192 177 158 131 124 127 125 118 121 127 122 110 119 132 108 96 169 11 64 90 16 349 8 30 326 306 338 187 265 309 321 135 168 350 27 91 195 280 284 344 357 1 83 101 87 59 41 37 27 26 20 23 21 16
256 270 278 280 275 244 212 195 183 201 261 260 297 318 321 326 325 333 340 2 56 82 84 117 148 124 59 269 253 242 232 218 207 201 188 180 176 153 133 126 115 115 119 112 108 102 93 91 78 90 137 56 76 89 45 355 337 355 153 250 268 201 272 324 328 5 68 18 16 50 195 286 272 94 10 13 65 90 84 66 47 39 28 31 23 22 24 15
249 268 281 280 268 231 202 185 179 209 244 246 290 310 318 321 323 352 71 97 96 89 82 121 139 108 279 226 212 259 227 197 193 189 189 189 193 165 139 119 98 106 105 91 103 97 53 49 60 323 50 66 104 96 60 318 282 306 18 232 248 210 226 306 298 347 31 85 28 9 189 260 263 54 25 11 48 78 80 70 55 48 35 34 28 28 27 21
252 270 278 277 259 221 196 185 188 213 232 247 297 307 325 325 234 146 143 126 96 71 59 112 124 87 272 216 199 232 134 158 168 170 182 179 167 158 139 118 107 103 84 57 64 73 21 27 72 52 30 49 120 112 155 228 220 207 186 205 247 233 227 261 261 298 12 23 7 328 249 264 276 351 28 8 37 75 81 78 73 60 47 40 32 34 28 27
252 269 274 270 244 215 195 189 197 215 231 252 290 331 53 39 91 165 160 142 120 115 212 216 155 153 236 244 213 118 104 129 144 153 160 150 149 141 117 105 103 96 93 84 43 97 91 54 67 163 206 188 182 175 199 212 188 183 176 162 187 220 244 241 242 261 326 5 302 243 237 264 280 348 25 7 38 73 79 72 70 53 47 40 33 34 30 36
243 257 268 258 230 211 195 195 203 218 235 239 193 107 100 66 25 287 224 195 214 196 175 196 188 197 257 256 140 128 117 116 127 150 148 148 145 128 91 71 70 64 107 156 173 138 113 128 200 220 204 196 203 203 202 177 135 140 137 142 187 219 260 253 251 282 211 157 269 221 214 255 266 353 6 359 49 64 64 67 64 52 49 35 38 36 29 36
237 246 259 248 222 210 199 201 209 226 242 231 172 137 170 175 146 279 259 253 245 232 237 221 205 246 266 173 158 151 133 82 38 138 155 157 146 138 101 52 96 83 216 165 147 62 90 165 228 232 200 193 207 204 190 148 128 119 143 183 244 224 251 261 243 298 327 177 260 219 231 261 246 44 353 13 66 50 40 79 75 60 60 40 41 36 26 22
231 241 254 241 216 208 201 201 221 238 248 235 199 204 233 203 171 248 145 288 269 238 233 240 236 260 255 190 181 165 127 140 340 221 173 154 141 170 180 84 137 180 209 136 117 62 83 216 240 232 157 134 121 172 182 198 193 169 135 181 264 236 268 286 284 338 11 175 264 323 301 275 262 73 27 36 72 57 34 69 67 61 64 45 42 36 30 26
236 242 248 232 210 206 200 205 237 242 239 230 218 216 239 236 171 103 103 305 293 258 213 210 211 233 230 234 202 173 184 205 199 237 187 155 135 185 146 122 153 150 148 180 161 147 184 244 245 197 140 142 107 130 152 162 202 195 156 178 247 233 320 282 294 338 11 124 267 18 330 287 282 80 56 46 81 89 59 64 59 57 70 58 62 52 38 37
242 243 243 223 207 203 200 217 241 236 234 236 235 224 206 173 163 142 94 18 288 280 230 204 196 205 205 214 188 176 204 212 178 215 183 159 136 150 161 152 137 144 196 199 176 182 226 245 213 113 135 167 171 146 148 153 225 239 202 202 223 216 213 231 287 331 352 14 46 83 348 302 277 211 108 72 90 83 48 58 52 33 39 47 63 53 37 40
238 240 238 218 204 199 199 218 235 230 228 233 239 225 196 182 173 153 97 25 289 288 281 212 199 210 190 160 166 170 171 221 213 206 175 165 149 136 185 156 134 200 203 169 166 219 251 239 124 102 105 151 167 188 182 168 191 278 232 209 214 218 222 237 342 8 10 346 345 50 325 294 310 293 189 165 73 48 25 45 44 14 17 29 42 34 18 27
234 236 233 214 199 191 190 219 232 220 212 225 234 210 188 185 172 157 96 38 282 265 237 195 180 183 174 144 157 146 81 262 238 119 156 170 161 124 150 153 88 211 177 140 161 219 258 266 129 158 146 141 174 222 218 168 144 271 246 204 207 205 197 195 138 87 106 262 315 41 186 254 314 312 213 168 95 58 32 42 34 359 15 25 27 21 10 13
232 232 228 211 194 188 188 209 204 186 185 233 215 185 183 179 170 175 76 14 276 205 137 222 165 154 169 172 160 139 166 247 107 80 131 156 173 89 134 180 132 203 167 126 206 234 207 92 79 151 147 160 198 236 218 164 138 231 237 153 158 171 179 180 154 153 215 252 325 6 134 229 287 285 243 155 127 76 353 9 333 277 341 16 9 12 14 8
229 227 222 204 193 195 199 187 176 175 187 214 180 175 176 172 173 151 79 272 272 121 112 248 84 102 137 90 79 118 197 250 112 212 354 88 149 65 131 205 169 173 165 140 214 261 154 164 192 170 158 197 216 229 188 160 153 240 195 125 132 150 157 144 130 150 258 14 310 303 124 229 264 275 313 130 197 246 223 215 216 210 214 202 196 350 13 4
226 222 213 198 196 206 212 212 184 188 213 171 164 173 168 166 168 79 83 228 252 94 88 120 130 52 72 106 52 63 57 25 111 238 0 82 82 64 153 204 143 139 106 127 210 258 91 213 202 158 163 211 220 278 185 171 189 198 132 98 80 83 89 91 111 123 68 62 246 245 193 206 270 284 287 160 250 243 208 208 211 201 209 204 202 208 185 91
222 216 205 196 203 213 214 220 212 197 194 171 166 167 158 154 128 96 216 229 138 106 96 115 166 132 126 137 126 354 81 33 46 44 28 88 31 34 122 151 96 120 38 14 256 255 321 292 171 144 175 194 146 66 142 185 159 140 110 69 50 37 42 43 60 93 83 263 243 232 196 181 261 278 230 191 230 204 168 182 202 198 207 207 209 206 187 173
218 212 200 197 209 212 205 214 212 201 182 175 167 155 151 114 71 175 222 233 79 139 128 138 184 138 150 153 164 179 99 41 15 112 109 125 59 44 92 129 79 79 10 333 293 303 334 335 236 200 162 131 100 67 33 14 82 111 95 82 74 359 13 26 359 47 146 251 256 248 179 158 210 258 236 210 226 194 168 179 185 187 197 200 203 199 186 183
217 212 200 200 211 212 206 205 203 199 186 174 163 147 140 111 212 214 222 36 170 199 156 169 185 160 168 142 111 155 124 98 183 130 139 142 153 170 166 172 154 85 326 246 249 330 296 240 258 287 177 139 110 79 36 12 33 86 97 102 101 342 357 353 308 269 222 248 260 246 154 175 226 245 224 196 200 211 210 200 183 182 188 191 194 191 181 182
216 212 203 205 212 213 212 205 199 197 185 169 160 137 130 180 221 215 200 202 208 185 127 122 119 131 145 126 144 170 122 158 180 145 140 116 151 212 249 179 153 124 172 201 183 286 283 287 276 150 244 181 149 146 156 197 169 150 144 132 130 122 108 259 265 270 264 258 264 269 164 217 263 260 216 192 201 221 229 230 204 188 185 184 184 179 175 184
214 212 208 209 213 216 212 203 200 196 181 164 152 173 186 214 224 184 187 213 206 76 76 105 103 110 143 168 210 175 135 204 175 135 128 118 142 212 239 224 171 115 103 131 165 179 211 286 213 178 221 183 173 178 157 145 150 179 161 132 144 157 174 222 220 210 249 273 299 301 199 191 211 238 234 226 247 260 244 229 205 188 180 168 160 162 177 192
211 211 212 214 216 219 213 204 202 192 177 162 161 187 200 222 222 158 183 197 153 85 51 80 107 119 181 249 246 194 176 205 169 131 148 164 173 195 197 203 192 151 130 155 209 167 174 263 252 242 262 159 173 190 118 114 131 208 130 111 169 187 157 177 199 176 182 292 293 243 224 219 192 220 290 285 297 322 328 180 169 170 163 151 159 178 191 200
203 206 215 219 220 219 213 208 204 190 177 165 192 199 210 218 192 174 191 160 154 145 110 82 92 124 202 236 232 220 210 148 155 148 183 192 206 204 193 207 192 180 168 161 192 161 137 272 279 333 14 124 165 186 113 129 182 163 127 173 218 184 119 114 252 59 81 258 267 198 238 288 330 272 306 13 350 340 32 124 160 167 162 165 185 196 199 203
194 200 211 217 219 217 213 211 204 192 182 182 207 207 217 220 175 172 190 133 140 140 133 174 189 159 189 198 204 209 194 138 159 167 190 192 218 197 193 237 192 186 194 171 191 197 153 259 287 116 124 315 174 142 85 49 130 126 176 212 203 130 97 105 232 347 42 243 272 224 226 257 209 244 315 29 282 256 210 179 169 170 174 186 199 202 203 201
191 195 208 218 216 212 213 212 201 191 188 202 217 223 217 208 185 156 159 134 129 144 161 197 196 176 186 189 194 187 178 182 172 177 183 188 239 191 174 210 190 191 201 170 155 237 144 217 292 41 157 304 19 114 90 11 72 127 190 195 116 149 175 101 166 227 234 244 283 298 257 242 198 202 206 204 224 218 197 188 184 186 191 197 203 204 203 194
189 189 217 219 212 209 210 206 195 185 206 199 212 228 210 186 211 179 167 147 121 163 190 200 186 174 181 177 169 169 180 184 167 175 185 182 231 198 171 188 183 197 203 166 168 228 118 178 268 312 239 247 35 112 172 220 48 81 113 112 79 163 178 156 155 170 179 220 275 301 304 265 224 199 178 194 210 194 179 186 197 199 199 200 200 197 196 193
179 182 254 205 203 207 203 196 188 185 217 206 209 220 184 148 218 215 188 164 131 192 203 196 178 169 173 173 164 168 182 186 173 181 201 184 195 210 199 183 147 167 181 161 177 177 100 183 230 301 311 180 171 204 186 182 170 135 144 177 199 152 137 195 204 123 135 174 212 271 283 268 253 199 180 198 210 186 180 188 195 201 202 202 202 198 194 193
159 203 256 165 187 195 188 184 196 196 206 219 222 223 205 160 172 186 232 127 121 248 195 157 169 168 167 175 192 182 170 176 182 186 205 196 186 199 205 177 150 148 132 145 185 193 158 169 178 195 201 182 226 238 188 180 178 169 187 197 191 171 135 188 243 190 121 176 184 202 265 269 253 200 191 209 214 193 189 187 189 198 200 199 202 200 193 194
162 206 161 154 175 178 170 188 213 189 213 222 213 209 189 159 155 164 189 121 115 148 115 128 151 155 173 182 189 179 164 168 189 190 200 199 190 191 195 159 147 147 133 136 187 190 147 119 136 195 209 210 240 254 184 186 166 152 215 208 175 170 143 176 227 227 147 214 163 142 260 275 255 220 228 239 236 211 191 185 190 200 199 197 199 197 198 204
179 193 99 154 173 170 167 220 206 195 229 213 159 168 161 158 161 157 179 191 162 147 148 166 176 170 186 175 133 169 185 187 188 186 188 194 197 224 207 155 146 145 135 131 158 159 140 123 131 254 298 312 310 333 33 146 131 171 235 177 161 192 169 178 214 170 160 213 165 132 250 265 279 240 252 263 247 209 191 190 193 198 197 196 198 199 204 204
163 152 58 169 180 178 182 211 202 207 216 189 178 190 170 153 171 165 178 188 176 157 160 180 195 178 176 149 135 172 198 206 200 193 173 178 193 338 9 174 163 151 153 173 167 171 185 159 138 159 306 335 338 320 265 245 194 207 217 176 184 175 113 87 126 113 212 215 162 186 248 248 282 338 22 15 43 182 206 203 194 195 196 197 202 208 206 189
135 116 25 183 190 197 206 198 202 209 203 199 198 187 181 211 193 181 178 174 170 168 167 184 179 151 140 132 128 172 194 189 190 193 155 173 209 2 11 306 178 150 194 290 151 158 172 171 157 173 209 227 224 207 207 204 184 198 197 185 200 185 162 164 159 177 232 195 151 216 247 256 315 326 59 39 70 196 222 217 209 213 203 201 207 207 196 183
149 128 112 153 213 236 224 126 170 212 203 201 201 189 191 199 229 196 177 176 182 168 151 123 137 128 139 161 163 191 203 185 145 163 177 182 215 296 352 33 59 124 119 59 83 126 124 186 200 203 218 221 209 204 191 134 142 188 200 189 200 200 189 183 168 204 219 175 191 231 232 231 277 250 225 245 207 210 215 197 206 222 214 211 211 201 192 196
148 151 162 149 169 221 223 189 179 201 215 203 197 194 197 196 187 159 197 202 179 159 126 46 142 169 187 179 180 201 200 181 159 172 181 174 180 311 353 69 65 105 124 84 31 97 106 225 221 213 237 236 160 161 185 131 161 199 206 216 224 215 194 195 212 215 177 174 238 235 164 185 239 218 206 223 212 213 218 203 208 217 209 201 193 187 196 203
164 148 167 141 132 199 215 201 173 157 220 213 201 158 196 199 193 184 194 187 156 168 172 186 196 198 192 179 180 189 183 184 193 187 168 148 152 128 51 74 67 92 118 89 327 107 128 229 216 187 244 255 190 161 177 167 199 215 215 227 228 218 203 202 219 219 187 210 248 237 153 208 238 199 196 215 208 204 210 204 204 196 170 166 171 186 203 207
120 73 21 26 63 183 189 152 149 155 174 187 169 144 193 202 201 194 144 121 162 192 194 206 209 200 190 180 175 179 185 192 206 199 170 156 166 155 142 156 113 42 102 111 293 142 143 230 205 173 237 253 226 163 173 183 204 220 228 231 225 217 207 200 216 222 210 233 261 267 198 234 237 175 198 218 204 200 219 225 175 169 167 173 183 199 211 212
103 119 118 74 72 48 49 116 144 163 153 97 174 192 184 200 199 181 88 153 171 180 202 211 198 174 175 178 182 202 200 179 173 179 163 158 177 171 182 177 139 69 106 141 178 231 190 214 153 148 223 253 186 121 148 199 206 223 242 239 210 182 203 207 215 211 196 250 257 248 250 257 233 165 199 228 170 164 233 251 223 214 205 191 197 213 221 219
85 44 59 103 126 138 90 92 132 157 168 167 188 172 154 199 195 117 26 275 140 140 188 193 152 126 140 180 204 222 210 141 137 162 153 157 190 205 224 193 152 145 165 167 157 174 192 204 74 125 206 239 175 147 139 75 40 262 256 243 185 175 209 203 198 194 198 224 235 233 248 257 226 148 185 232 203 192 223 230 222 228 214 195 208 223 227 224
90 32 30 81 133 165 149 118 130 169 196 181 175 162 165 191 178 121 53 347 11 121 155 121 108 97 114 206 231 242 224 123 127 134 125 122 129 137 153 161 147 151 167 171 157 156 169 163 131 173 201 235 160 150 137 103 354 264 255 225 188 207 223 159 187 222 213 200 205 225 240 247 184 146 188 231 223 217 231 228 221 226 215 206 222 230 231 231